Stündliche Wetter Caucel

Heute, 19 Januar, Dienstag

Zeit Temperatur Niederschläge Wind Luftdruck Luftfeuchtigkeit
00:00 +19°C° 0 mm 3 m/S 763 mmHg 81%
01:00 +19°C° 0 mm 3 m/S 763 mmHg 83%
02:00 +19°C° 0 mm 2 m/S 763 mmHg 85%
03:00 +18°C° 0 mm 2 m/S 763 mmHg 87%
04:00 +18°C° 0 mm 2 m/S 763 mmHg 88%
05:00 +19°C° 0 mm 3 m/S 763 mmHg 89%
06:00 +19°C° 0 mm 3 m/S 763 mmHg 90%
07:00 +20°C° 0 mm 3 m/S 764 mmHg 84%
08:00 +22°C° 0 mm 4 m/S 764 mmHg 78%
09:00 +25°C° 0 mm 4 m/S 764 mmHg 71%
10:00 +27°C° 0 mm 4 m/S 764 mmHg 66%
11:00 +29°C° 0 mm 4 m/S 764 mmHg 61%
12:00 +30°C° 0 mm 4 m/S 764 mmHg 56%
13:00 +30°C° 0 mm 4 m/S 763 mmHg 56%
14:00 +30°C° 0 mm 4 m/S 763 mmHg 56%
15:00 +30°C° 0 mm 5 m/S 762 mmHg 57%
16:00 +29°C° 0 mm 4 m/S 762 mmHg 62%
17:00 +28°C° 0 mm 4 m/S 763 mmHg 68%
18:00 +26°C° 0 mm 4 m/S 763 mmHg 73%
19:00 +25°C° 0 mm 4 m/S 764 mmHg 77%
20:00 +25°C° 0 mm 4 m/S 764 mmHg 81%
21:00 +23°C° 0 mm 4 m/S 765 mmHg 85%
22:00 +22°C° 0 mm 4 m/S 765 mmHg 87%
23:00 +22°C° 0 mm 4 m/S 765 mmHg 88%

Morgen, 20 Januar, Mittwoch

Zeit Temperatur Niederschläge Wind Luftdruck Luftfeuchtigkeit
00:00 +22°C° 0 mm 3 m/S 764 mmHg 89%
01:00 +21°C° 0 mm 3 m/S 764 mmHg 90%
02:00 +21°C° 0 mm 3 m/S 764 mmHg 90%
03:00 +21°C° 0 mm 3 m/S 764 mmHg 91%
04:00 +21°C° 0 mm 3 m/S 764 mmHg 92%
05:00 +21°C° 0 mm 3 m/S 764 mmHg 93%
06:00 +20°C° 0 mm 2 m/S 765 mmHg 93%
07:00 +22°C° 0 mm 3 m/S 765 mmHg 85%
08:00 +25°C° 0 mm 3 m/S 765 mmHg 77%
09:00 +27°C° 0 mm 4 m/S 766 mmHg 69%
10:00 +28°C° 0 mm 4 m/S 765 mmHg 65%
11:00 +29°C° 0 mm 4 m/S 765 mmHg 61%
12:00 +30°C° 0 mm 4 m/S 764 mmHg 57%
13:00 +29°C° 0 mm 4 m/S 764 mmHg 59%
14:00 +29°C° 0 mm 4 m/S 763 mmHg 62%
15:00 +28°C° 0 mm 5 m/S 763 mmHg 64%
16:00 +27°C° 0 mm 4 m/S 763 mmHg 68%
17:00 +26°C° 0 mm 4 m/S 763 mmHg 71%
18:00 +25°C° 0 mm 4 m/S 763 mmHg 75%
19:00 +23°C° 0 mm 4 m/S 763 mmHg 77%
20:00 +23°C° 0 mm 4 m/S 764 mmHg 79%
21:00 +22°C° 0 mm 4 m/S 764 mmHg 81%
22:00 +21°C° 0 mm 3 m/S 764 mmHg 83%
23:00 +21°C° 0 mm 3 m/S 764 mmHg 85%

übermorgen, 21 Januar, Donnerstag

Zeit Temperatur Niederschläge Wind Luftdruck Luftfeuchtigkeit
00:00 +20°C° 0 mm 3 m/S 764 mmHg 87%
01:00 +20°C° 0 mm 2 m/S 764 mmHg 88%
02:00 +19°C° 0 mm 2 m/S 763 mmHg 90%
03:00 +19°C° 0 mm 2 m/S 763 mmHg 91%
04:00 +19°C° 0 mm 2 m/S 763 mmHg 92%
05:00 +19°C° 0 mm 2 m/S 764 mmHg 92%
06:00 +18°C° 0 mm 2 m/S 764 mmHg 93%
07:00 +20°C° 0 mm 2 m/S 764 mmHg 86%
08:00 +22°C° 0 mm 3 m/S 764 mmHg 78%
09:00 +25°C° 0 mm 3 m/S 764 mmHg 71%
10:00 +27°C° 0 mm 3 m/S 764 mmHg 65%
11:00 +28°C° 0 mm 3 m/S 763 mmHg 58%
12:00 +30°C° 0 mm 2 m/S 763 mmHg 52%
13:00 +30°C° 0 mm 2 m/S 762 mmHg 49%
14:00 +31°C° 0 mm 3 m/S 761 mmHg 47%
15:00 +31°C° 0 mm 3 m/S 760 mmHg 45%
16:00 +29°C° 0 mm 3 m/S 760 mmHg 55%
17:00 +26°C° 0 mm 3 m/S 760 mmHg 65%
18:00 +23°C° 0 mm 4 m/S 760 mmHg 74%
19:00 +22°C° 0 mm 3 m/S 761 mmHg 78%
20:00 +21°C° 0 mm 3 m/S 761 mmHg 81%
21:00 +21°C° 0 mm 3 m/S 761 mmHg 85%
22:00 +20°C° 0 mm 3 m/S 761 mmHg 87%
23:00 +20°C° 0 mm 2 m/S 761 mmHg 90%

22 Januar, Freitag

Zeit Temperatur Niederschläge Wind Luftdruck Luftfeuchtigkeit
00:00 +19°C° 0 mm 2 m/S 760 mmHg 92%
01:00 +19°C° 0 mm 2 m/S 760 mmHg 94%
02:00 +19°C° 0 mm 2 m/S 760 mmHg 95%
03:00 +19°C° 0 mm 2 m/S 760 mmHg 97%
04:00 +19°C° 0 mm 2 m/S 760 mmHg 97%
05:00 +19°C° 0 mm 2 m/S 760 mmHg 98%
06:00 +19°C° 0 mm 2 m/S 760 mmHg 98%
07:00 +20°C° 0 mm 2 m/S 761 mmHg 91%
08:00 +23°C° 0 mm 2 m/S 761 mmHg 84%
09:00 +25°C° 0 mm 2 m/S 761 mmHg 77%
10:00 +27°C° 0 mm 2 m/S 761 mmHg 69%
11:00 +30°C° 0 mm 2 m/S 760 mmHg 61%
12:00 +32°C° 0 mm 2 m/S 760 mmHg 53%
13:00 +32°C° 0 mm 2 m/S 759 mmHg 49%
14:00 +34°C° 0 mm 2 m/S 759 mmHg 45%
15:00 +35°C° 0 mm 2 m/S 758 mmHg 41%
16:00 +32°C° 0 mm 2 m/S 758 mmHg 49%
17:00 +29°C° 0 mm 2 m/S 758 mmHg 57%
18:00 +27°C° 0 mm 2 m/S 758 mmHg 65%
19:00 +26°C° 0 mm 2 m/S 759 mmHg 71%
20:00 +25°C° 0 mm 2 m/S 759 mmHg 77%
21:00 +24°C° 0 mm 2 m/S 760 mmHg 83%
22:00 +24°C° 0 mm 2 m/S 760 mmHg 87%
23:00 +23°C° 0 mm 2 m/S 760 mmHg 91%

23 Januar, Samstag

Zeit Temperatur Niederschläge Wind Luftdruck Luftfeuchtigkeit
00:00 +23°C° 0 mm 2 m/S 760 mmHg 95%
01:00 +23°C° 0 mm 2 m/S 760 mmHg 96%
02:00 +23°C° 0 mm 2 m/S 760 mmHg 97%
03:00 +23°C° 0 mm 2 m/S 760 mmHg 98%
04:00 +23°C° 0 mm 2 m/S 760 mmHg 98%
05:00 +21°C° 0 mm 2 m/S 760 mmHg 98%
06:00 +21°C° 0 mm 2 m/S 760 mmHg 98%
07:00 +24°C° 0 mm 2 m/S 761 mmHg 92%
08:00 +25°C° 0 mm 3 m/S 761 mmHg 85%
09:00 +27°C° 0 mm 3 m/S 762 mmHg 78%
10:00 +29°C° 0 mm 3 m/S 761 mmHg 68%
11:00 +31°C° 0 mm 3 m/S 761 mmHg 57%
12:00 +34°C° 0 mm 3 m/S 761 mmHg 47%
13:00 +34°C° 0 mm 3 m/S 760 mmHg 44%
14:00 +35°C° 0 mm 3 m/S 760 mmHg 41%
15:00 +35°C° 0 mm 3 m/S 759 mmHg 38%
16:00 +33°C° 0 mm 3 m/S 759 mmHg 49%
17:00 +29°C° 0 mm 4 m/S 759 mmHg 60%
18:00 +26°C° 0 mm 4 m/S 759 mmHg 71%
19:00 +26°C° 0 mm 4 m/S 760 mmHg 75%
20:00 +25°C° 0 mm 3 m/S 761 mmHg 79%
21:00 +25°C° 0 mm 3 m/S 761 mmHg 83%
22:00 +25°C° 0 mm 3 m/S 761 mmHg 86%
23:00 +24°C° 0 mm 3 m/S 761 mmHg 89%

24 Januar, Sonntag

Zeit Temperatur Niederschläge Wind Luftdruck Luftfeuchtigkeit
00:00 +24°C° 0 mm 3 m/S 761 mmHg 91%
01:00 +24°C° 0 mm 3 m/S 761 mmHg 93%
02:00 +22°C° 0 mm 3 m/S 760 mmHg 95%
03:00 +22°C° 0 mm 3 m/S 760 mmHg 97%
04:00 +22°C° 0 mm 3 m/S 760 mmHg 96%
05:00 +22°C° 0 mm 3 m/S 761 mmHg 96%
06:00 +22°C° 0 mm 3 m/S 761 mmHg 96%
07:00 +24°C° 0 mm 3 m/S 761 mmHg 90%
08:00 +25°C° 0 mm 3 m/S 762 mmHg 85%
09:00 +26°C° 0 mm 3 m/S 762 mmHg 79%
10:00 +28°C° 0 mm 3 m/S 762 mmHg 72%
11:00 +30°C° 0 mm 3 m/S 761 mmHg 64%
12:00 +33°C° 0 mm 3 m/S 761 mmHg 56%
13:00 +33°C° 0 mm 3 m/S 760 mmHg 54%
14:00 +34°C° 0 mm 3 m/S 759 mmHg 52%
15:00 +34°C° 0 mm 3 m/S 759 mmHg 49%
16:00 +31°C° 0 mm 3 m/S 759 mmHg 57%
17:00 +29°C° 0 mm 3 m/S 759 mmHg 65%
18:00 +27°C° 0 mm 3 m/S 759 mmHg 73%
19:00 +27°C° 0 mm 3 m/S 759 mmHg 76%
20:00 +26°C° 0 mm 3 m/S 760 mmHg 80%
21:00 +25°C° 0 mm 3 m/S 760 mmHg 83%
22:00 +25°C° 0 mm 3 m/S 760 mmHg 86%
23:00 +25°C° 0 mm 3 m/S 760 mmHg 89%
Mehr zeigen

Wir brauchen deine Erlaubnis

Meteoprog und unser Service Anbieter werden persönliche Daten aufbewahren, so wie Cookies, Geräte Bezeichnung oder ähnliche Technologien von deinem Gerät und Prozess, so wie Persönliche Daten Inhalte und Werbungen, genauso wie social Media und den Verkehr zu analysieren.

  • Aufbewahrung und/oder Zugang zu deiner Geräte Informationen.

    Cookies, Geräte Bezeichnung oder andere Informationen, können aufbewahrt oder Zugang zu deinem Gerät erhalten, für den Grund, der oben angegeben wird.

  • Personalisierte Werbung und Inhalte, Messungen, Einblick in das Publikum und Produkt Entwicklung.

    Werbungen und Inhalte können personalisiert werden, basierend auf ein Profil. Mehr Daten können besser personalisierte Werbungen und Inhalte hinzufügen. Werbung und Inhalte können gezeigt und gemessen werden. Einblicke über das Publikum, welche die Werbung gesehen haben und den Inhalt, können abgeleitet werden. So wie Daten können genutzt werden, um es zu verbessern oder die Benutzer Erfahrung zu verbessern das System und die Software.

Wenn du “Ich stimme zu” klickst, erlaubst du uns, die Cookies zu benutzen die Geräte Bezeichnung, den Web oder ähnliche Technologien zu benutzen. Deine Settings, können in deinem Gerät bei deinem Browser geändert werden.

Für den bestimmten Zweck, berechtigten Interessen beruhen darauf, mehr als auf den Inhalt. Du kannst mehr darüber in unseren Privaten und Cookie Politik lesen.